Other Public Products
Issued by NWS Grand Forks, ND

Home | Current Version | Previous Version | Graphics & Text | Print | Product List | Glossary On
Versions: 1 2 3 4 5 6 7 8 9 10 11 12 13 14 15 16 17 18 19 20 21 22 23 24 25 26 27 28 29 30 31 32 33 34 35 36 37 38 39 40 41 42 43 44 45 46 47 48 49 50
000
FPUS83 KFGF 260331
OPUFGF
PRAIRIE TO PINES WEATHER ROUNDUP
NATIONAL WEATHER SERVICE EASTERN NORTH DAKOTA/GRAND FORKS ND
900 PM CST TUE NOV 25 2014

 **SATELLITE DATA USED TO AUGMENT SKY COVER AT AUTOMATED STATIONS**
 *****  WEATHER ACROSS EASTERN NORTH DAKOTA  *****

CITY           SKY/WX    TMP DP  RH WIND       PRES   REMARKS
GRAND FORKS    LGT SNOW  16  10  79 N20       30.08R FOG     WCI  -1
GRAND FORKS AF LGT SNOW  14  10  85 N16       30.08R FOG     WCI  -2
GRAND CITY NWS   N/A     14 N/A N/A VRB22       N/A  WCI  -4
BUXTON           N/A     19  18  98 N14         N/A  WCI   5
DEVILS LAKE    CLOUDY    12   1  62 NE17G26   30.04R WCI  -5
FARGO          LGT SNOW  24  18  77 NE12      29.99R WCI  13
WAHPETON ARPT  CLOUDY    23  18  80 E8        29.94R WCI  14
$$

 *****  WEATHER ACROSS CENTRAL AND WESTERN NORTH DAKOTA  *****

CITY           SKY/WX    TMP DP  RH WIND       PRES   REMARKS
JAMESTOWN      LGT SNOW  20  17  88 NE22G28   29.91R FOG     WCI   3
BISMARCK       CLOUDY    20  14  77 N26G32    29.94R WCI   2
MINOT          CLOUDY    13   9  84 N13       30.06R FOG     WCI  -2
MINOT AFB      CLOUDY    10   7  85 N15       30.09R WCI  -6
GARRISON         N/A     18  14  84 NE10G24   30.00R WCI   6
WILLISTON      CLOUDY    19  13  77 N13       30.11R WCI   6
DICKINSON      CLOUDY    23  19  85 N22G29    29.97R WCI   8
HETTINGER      CLOUDY    27  23  85 N29G37    29.93R WCI  11
$$

 *****  OTHER OBSERVATIONS NORTHEAST NORTH DAKOTA  *****

CITY           SKY/WX    TMP DP  RH WIND       PRES   REMARKS
WALHALLA         N/A      7   7 100 N14       30.15R WCI -10
LANGDON        CLOUDY     7   3  85 NE17      30.07R WCI -12
CAVALIER       LGT SNOW   9   5  85 N14G24    30.14R WCI  -8
GRAFTON        LGT SNOW  10   7  85 N15G28    30.12R WCI  -6
CANDO          CLOUDY    10   7  85 NE14      30.08R WCI  -5
FORT TOTTEN      N/A     13   9  85 NE7       29.95  WCI   3
ROLLA          CLOUDY     5   1  85 NE16      30.09R WCI -14
RUGBY          FLURRIES   9   5  85 NE18      30.08R WCI -10
 ***** THE ABOVE OBSERVATIONS ARE NON NWS ARE NOT QUALITY
        CONTROLLED AND MAY MIS-REPORT RAIN FOR SNOW...
$$

 *****  OTHER OBSERVATIONS SOUTHEAST NORTH DAKOTA *****

CITY           SKY/WX    TMP DP  RH WIND       PRES   REMARKS
COOPERSTOWN    NOT AVBL
VALLEY CITY    LGT SNOW  19  19 100 NE15G24   29.95R WCI   5
OAKES          LGT SNOW  25  25 100 NE15      29.86R WCI  12
GWINNER        CLOUDY    27  25  93 NE12      29.90R WCI  16
SHEYENNE NWR     N/A     23  19  85 E8        29.95S WCI  14
BUFFALO        NOT AVBL
WYNDMERE         N/A     25  19  80 E9          N/A  WCI  15
 ***** THE ABOVE OBSERVATIONS ARE NON NWS ARE NOT QUALITY
       CONTROLLED AND MAY MIS-REPORT RAIN FOR SNOW...
$$

  *****  WEATHER ACROSS NORTHERN MINNESOTA  *****

CITY           SKY/WX    TMP DP  RH WIND       PRES   REMARKS
FLAG ISLAND    LGT SNOW  12   9  85 N12       30.05R WCI  -2
WARROAD        LGT SNOW  12   9  85 N8        30.06R WCI   1
ROSEAU         LGT SNOW  14   9  79 N9        30.06R WCI   2
HALLOCK        LGT SNOW  10   7  85 N13G20    30.11R WCI  -5
THF RVR FALLS  CLOUDY    18  12  79 N14       30.03R WCI   4
HALSTAD          N/A     21  18  86 NE12        N/A  WCI   9
FOSSTON        LGT SNOW  18  14  86 N6        30.00R WCI   9
BAUDETTE       CLOUDY    14  10  84 N8        30.01R WCI   3
WASKISH        CLOUDY    18  14  86 CALM      30.02R
CROOKSTON      FLURRIES  19  18  93 N13       30.05R WCI   7
$$
  *****  WEATHER ACROSS CENTRAL AND WEST MINNESOTA  *****

CITY           SKY/WX    TMP DP  RH WIND       PRES   REMARKS
BEMIDJI        CLOUDY    19  13  79 E3        29.99R
PARK RAPIDS    CLOUDY    19   7  59 E3        29.97R
WADENA         CLOUDY    16   9  73 NE5       29.96R WCI   9
DETROIT LAKES  CLOUDY    21  14  73 E3        29.97R
MOORHEAD       LGT RAIN  25  21  86 NE8       29.99R WCI  16
FERGUS FALLS   CLOUDY    23  12  63 E7        29.97R WCI  15
ELBOW LAKE       N/A     23  15  71 E9        29.92R WCI  13
MORRIS MN      CLOUDY    25  16  68 SE12      29.89F WCI  14
STAPLES        CLOUDY    16   9  73 CALM      29.98R
WHEATON        CLOUDY    21  18  86 E9        29.92S WCI  11
$$
  *****  WEATHER ELSEWHERE ACROSS MINNESOTA  *****

CITY           SKY/WX    TMP DP  RH WIND       PRES   REMARKS
DULUTH         CLOUDY    18   9  68 SW6       30.00R WCI  10
INTRNTL FALLS  CLOUDY    14  11  87 CALM      30.01R
ELY            PTCLDY     7   3  85 CALM      30.00R
CLOQUET        CLOUDY    18  10  73 CALM      30.02R
BRAINERD       CLOUDY    16   8  71 CALM      29.99R
HIBBING        CLOUDY    19   6  57 S5        30.00R WCI  12
ALEXANDRIA     CLOUDY    20  13  74 SE9       29.93R WCI   9
SAINT CLOUD    CLOUDY    22  12  65 E6        29.99F WCI  14
MINNEAPOLIS    CLOUDY    24  15  68 SE3       30.04R
$$

  *****  WEATHER ACROSS SOUTH DAKOTA  *****

CITY           SKY/WX    TMP DP  RH WIND       PRES   REMARKS
SIOUX FALLS    FLURRIES  34  25  69 SE14      29.82S WCI  25
BROOKINGS      NOT AVBL
WATERTOWN      LGT SNOW  30  24  78 SE8       29.80F WCI  22
HURON          LGT SNOW  32  28  85 SW5       29.79S FOG
SISSETON         N/A     26  21  81 SE7       29.87S WCI  18
ABERDEEN       LGT SNOW  31  29  92 SE10      29.80R FOG     WCI  22
MITCHELL       LGT RAIN  34  32  92 W8        29.80S
PIERRE         CLOUDY    38  31  76 NW18G31   29.80R
MOBRIDGE       CLOUDY    36  32  85 NW14      29.76R
RAPID CITY     MOCLDY    34  22  61 NW30G40   29.91R WCI  20
$$

  *****  SOME WEATHER IN NEARBY STATES *****

CITY           SKY/WX    TMP DP  RH WIND       PRES   REMARKS
GLASGOW MT     CLOUDY    22  16  78 N6        30.13R WCI  14
GREAT FALLS MT CLOUDY    30  26  85 S10       30.12S WCI  21
CHEYENNE WY    LGT SNOW  27  23  85 N17G26    29.97R VSB 1   WCI  14
SCOTTSBLUFF NE CLOUDY    34  32  92 W13       30.00R WCI  25
OMAHA NE       CLOUDY    40  24  53 S16       29.92F
DES MOINES IA  MOCLDY    29  13  51 SE10      30.03F WCI  20
DAVENPORT IA   CLEAR     17  13  84 SE7       30.15S WCI   8
CHICAGO IL     FAIR      18  14  84 S5        30.18R WCI  11
EAU CLAIRE WI  CLOUDY    22  15  75 S7        30.06R WCI  13
LA CROSSE WI   PTCLDY    20  13  74 SW5       30.11R WCI  13
$$

  *****  SOME NATIONAL WEATHER *****

CITY           SKY/WX    TMP DP  RH WIND       PRES   REMARKS
LA GUARDIA NY  CLOUDY    52  28  39 W9        30.13R
RALEIGH NC     LGT RAIN  49  44  83 E3        30.10F
ATLANTA GA     CLOUDY    53  32  44 W3        30.05R
NEW ORLEANS LA PTCLDY    50  30  46 N9        30.22F
OKLAHOMA CITY  CLOUDY    45  28  51 S9        30.06F
ALBUQUERQUE NM PTCLDY    44   5  20 NW9       30.28R
SALT LAKE CITY MOCLDY    44  31  60 SE9       30.30R
LOS ANGELES CA CLEAR     65  49  56 W5        30.28R
BOISE ID       CLOUDY    52  42  69 W6        30.26S
SEATTLE WA     CLOUDY    56  53  90 S15       30.17S
$$

*** WEATHER ACROSS MANITOBA...SASKATCHEWAN AND ONTARIO ***
                ***ONTARIO***

CITY           SKY/WX    TMP DP  RH WIND       PRES   REMARKS
GERALDTON      FLURRIES   7   1  78 NW5       30.01R WCI  -2
THUNDER BAY    CLOUDY    16  10  79 SW5       30.07R WCI   9
SIOUX LOOKOUT  CLOUDY     7   1  78 N5        30.02  WCI  -2
TORONTO        MOCLDY    34  25  69 SW8       30.15R
BIG TROUT LK   CLEAR    -18 -24  76 W8        30.06R WCI -37
PICKLE LAKE    NOT AVBL
DRYDEN         LGT SNOW   9   7  92 N5        30.02  WCI   0
KENORA         LGT SNOW   9   5  85 N8        30.04R WCI  -4
$$
                *** MANITOBA***

CITY           SKY/WX    TMP DP  RH WIND       PRES   REMARKS
BRANDON        PTCLDY     1  -2  85 NE9       30.17R WCI -14
DAUPHIN        CLEAR     -8 -13  77 NW3       30.27R
ISLAND LAKE    CLEAR    -17 -24  70 NW6       30.17R WCI -31
PILOT MOUND      N/A      5   1  85 N9          N/A  WCI  -9
THE PAS        CLEAR    -11 -15  84 NW9       30.29R WCI -29
THOMPSON       CLEAR    -20 -27  69 NW3       30.20S
WINNIPEG       MOCLDY     5  -4  66 N12       30.19R WCI -11
LYNN LAKE      CLEAR    -22 -27  76 NW7       30.20R WCI -39
CHURCHILL      CRYSTALS -15 -20  76 NW20G26   30.12R DRFTSNOWWCI -41
GILLAM         CLEAR    -18 -24  76 W8        30.15R WCI -37
$$
                ***SASKATCHEWAN***

CITY           SKY/WX    TMP DP  RH WIND       PRES   REMARKS
ESTEVAN        FLURRIES  14   9  79 E6        30.12R WCI   5
KINDERSLEY     FLURRIES  12   9  85 NE5       30.17R WCI   4
LLOYDMINSTER   FLURRIES   3   0  85 SE6       30.21R WCI  -8
PRINCE ALBERT  MOCLDY    -2  -8  78 NE7       30.28R WCI -16
REGINA         FLURRIES   9   3  78 NE7       30.18R WCI  -3


USA.gov is the U.S. government's official web portal to all federal, state and local government web resources and services.